Flag for Indonesia Weather past 2 weeks in Manado, North Sulawesi, Indonesia

Now
77 °F

Passing clouds.


Feels Like: 78 °F
Forecast: 76 / 84 °F
Wind: 2 mph from North

Location: Menado / Dr. Sam Ratulangi

Current Time: Feb 28, 2015 at 12:14:25 AM

Latest Report: Feb 27, 2015 at 11:30 PM


Visibility: 6 mi

Pressure: 29.86 "Hg

Humidity: 94%

Dew point: 75 °F

Location of ManadoLocation

Historic Weather in Manado — Graph

°F

Manado temperature yesterday

Maximum temperature yesterday: 86 °F (at 12:30 PM)
Minimum temperature yesterday: 75 °F (at 2:00 AM)
Average temperature yesterday: 80 °F

Past Weeks' High & Low Weather Summary

 TemperatureHumidityPressure
High90 °F (Feb 15, 1:30 PM)100% (Feb 13, 2:00 AM)29.95 "Hg (Feb 13, 2:00 AM)
Low72 °F (Feb 26, 6:00 AM)40% (Feb 24, 10:00 AM)29.77 "Hg (Feb 13, 3:00 PM)
Average80 °F83%29.86 "Hg
* Reported Feb 12 11:00 PM — Feb 27 11:00 PM, Manado, Weather by CustomWeather, © 2015

Note: Actual official high and low records may vary slightly from our data, if they occured in-between our weather recording intervals... More about our weather records

Advertising

Manado weather history for previous 24 hours

 ConditionsComfort  
Time TempWeatherWind HumidityBarometerVisibility
11:00 PM
Fri, Feb 27
77 °FPassing clouds.3 mph94%29.86 "Hg6 mi
10:30 PM79 °FPassing clouds.1 mph89%29.89 "Hg6 mi
10:00 PM79 °FPassing clouds.No wind89%29.89 "Hg6 mi
9:30 PM79 °FPassing clouds.1 mph89%29.86 "Hg6 mi
9:00 PM79 °FPassing clouds.1 mph89%29.86 "Hg6 mi
8:30 PM79 °FPassing clouds.2 mph89%29.86 "Hg6 mi
8:00 PM79 °FPassing clouds.2 mph89%29.83 "Hg6 mi
7:30 PM79 °FPassing clouds.2 mph89%29.83 "Hg6 mi
7:00 PM79 °FPassing clouds.2 mph89%29.83 "Hg6 mi
6:30 PM79 °FPassing clouds.1 mph89%29.83 "Hg6 mi
6:00 PM81 °FPassing clouds.3 mph84%29.80 "HgN/A
5:30 PM81 °FScattered clouds.3 mph84%29.80 "HgN/A
5:00 PM82 °FScattered clouds.5 mph74%29.77 "HgN/A
4:00 PM84 °FScattered clouds.6 mph70%29.77 "HgN/A
3:30 PM84 °FScattered clouds.9 mph74%29.77 "HgN/A
3:00 PM84 °FScattered clouds.9 mph70%29.77 "HgN/A
2:30 PM86 °FScattered clouds.10 mph62%29.77 "HgN/A
2:00 PM86 °FScattered clouds.8 mph66%29.77 "HgN/A
1:30 PM86 °FScattered clouds.8 mph66%29.80 "HgN/A
1:00 PM86 °FScattered clouds.10 mph70%29.80 "HgN/A
12:30 PM86 °FScattered clouds.13 mph66%29.83 "HgN/A
11:30 AM84 °FScattered clouds.6 mph74%29.86 "Hg6 mi
11:00 AM82 °FScattered clouds.3 mph79%29.86 "Hg6 mi
10:30 AM81 °FScattered clouds.5 mph84%29.89 "Hg5 mi
10:00 AM77 °FLight rain. Scattered clouds.3 mph94%29.89 "Hg2 mi
9:30 AM77 °FRain. Scattered clouds.3 mph89%29.89 "Hg2 mi
9:00 AM75 °FRain. Scattered clouds.5 mph94%29.92 "Hg1 mi
8:30 AM75 °FHeavy rain. Partly sunny.2 mph94%29.89 "Hg1 mi
8:00 AM75 °FRain. Scattered clouds.2 mph94%29.92 "Hg1 mi
7:30 AM75 °FHeavy rain. Partly sunny.2 mph94%29.89 "Hg1 mi
7:00 AM75 °FHeavy rain. Partly sunny.3 mph94%29.89 "Hg1 mi
6:30 AM75 °FLight rain. Partly sunny.2 mph100%29.86 "Hg1 mi
6:00 AM75 °FRain. Partly sunny.3 mph94%29.86 "Hg1 mi
5:30 AM75 °FRain. Passing clouds.1 mph94%29.86 "Hg4 mi
5:00 AM75 °FPassing clouds.2 mph94%29.83 "Hg3 mi
2:00 AM75 °FPassing clouds.2 mph94%29.83 "Hg6 mi
Weather by CustomWeather, © 2015

See weather overviewHow to use our weather pages